• în România
  • Lista ţărilor
  • Pe 7 zile
  • Temperatura apei
  • Hartă satelitară
  • Meteo pe hartă
  • Widget-uri
  • user-avatar
    Intrare

    Meteo pe oră la Konstantyna

    Astăzi, 18 Ianuarie, Miercuri

    Timp Temperatura Precipitaţii Vânt Presiune Umiditate
    00:00 -1°C° 0 mm 2 m/s 703 mmHg 96%
    01:00 -1°C° 0,2 mm 2 m/s 703 mmHg 96%
    02:00 -1°C° 0,2 mm 2 m/s 703 mmHg 96%
    03:00 -1°C° 0,2 mm 2 m/s 703 mmHg 96%
    04:00 -1°C° 0,1 mm 2 m/s 704 mmHg 96%
    05:00 -1°C° 0,1 mm 2 m/s 704 mmHg 96%
    06:00 -1°C° 0,1 mm 2 m/s 704 mmHg 96%
    07:00 +1°C° 0,1 mm 2 m/s 705 mmHg 93%
    08:00 +2°C° 0,1 mm 3 m/s 705 mmHg 89%
    09:00 +3°C° 0,1 mm 3 m/s 706 mmHg 85%
    10:00 +4°C° 0,2 mm 3 m/s 706 mmHg 81%
    11:00 +5°C° 0,2 mm 3 m/s 706 mmHg 77%
    12:00 +7°C° 0,2 mm 3 m/s 706 mmHg 73%
    13:00 +7°C° 0,2 mm 3 m/s 706 mmHg 73%
    14:00 +7°C° 0,2 mm 3 m/s 706 mmHg 74%
    15:00 +7°C° 0,2 mm 3 m/s 706 mmHg 74%
    16:00 +4°C° 0 mm 3 m/s 707 mmHg 81%
    17:00 +3°C° 0 mm 2 m/s 707 mmHg 87%
    18:00 +1°C° 0 mm 2 m/s 707 mmHg 94%
    19:00 +1°C° 0 mm 2 m/s 707 mmHg 94%
    20:00 +1°C° 0 mm 2 m/s 708 mmHg 94%
    21:00 +1°C° 0 mm 2 m/s 708 mmHg 94%
    22:00 +1°C° 0 mm 2 m/s 708 mmHg 93%
    23:00 -1°C° 0 mm 2 m/s 708 mmHg 93%

    Mâine, 19 Ianuarie, Joi

    Timp Temperatura Precipitaţii Vânt Presiune Umiditate
    00:00 -1°C° 0 mm 2 m/s 709 mmHg 93%
    01:00 -1°C° 0 mm 2 m/s 709 mmHg 92%
    02:00 +1°C° 0 mm 1 m/s 708 mmHg 91%
    03:00 +1°C° 0 mm 1 m/s 708 mmHg 90%
    04:00 +1°C° 0 mm 1 m/s 708 mmHg 89%
    05:00 0°C° 0 mm 1 m/s 709 mmHg 88%
    06:00 0°C° 0 mm 1 m/s 709 mmHg 87%
    07:00 +3°C° 0 mm 1 m/s 709 mmHg 78%
    08:00 +5°C° 0 mm 1 m/s 710 mmHg 69%
    09:00 +7°C° 0 mm 1 m/s 710 mmHg 61%
    10:00 +8°C° 0 mm 1 m/s 710 mmHg 54%
    11:00 +10°C° 0 mm 1 m/s 710 mmHg 48%
    12:00 +11°C° 0 mm 1 m/s 710 mmHg 41%
    13:00 +11°C° 0 mm 1 m/s 710 mmHg 43%
    14:00 +11°C° 0 mm 1 m/s 710 mmHg 44%
    15:00 +11°C° 0 mm 1 m/s 710 mmHg 46%
    16:00 +8°C° 0 mm 1 m/s 710 mmHg 57%
    17:00 +6°C° 0 mm 1 m/s 709 mmHg 67%
    18:00 +3°C° 0 mm 1 m/s 709 mmHg 77%
    19:00 +3°C° 0 mm 1 m/s 709 mmHg 78%
    20:00 +2°C° 0 mm 1 m/s 709 mmHg 79%
    21:00 +2°C° 0 mm 1 m/s 709 mmHg 80%
    22:00 +2°C° 0 mm 1 m/s 709 mmHg 78%
    23:00 +2°C° 0 mm 1 m/s 709 mmHg 77%

    Poimâine, 20 Ianuarie, Vineri

    Timp Temperatura Precipitaţii Vânt Presiune Umiditate
    00:00 +2°C° 0 mm 1 m/s 709 mmHg 75%
    01:00 +2°C° 0 mm 1 m/s 709 mmHg 72%
    02:00 +2°C° 0 mm 1 m/s 709 mmHg 68%
    03:00 +2°C° 0 mm 1 m/s 709 mmHg 65%
    04:00 +2°C° 0 mm 1 m/s 709 mmHg 64%
    05:00 +2°C° 0 mm 1 m/s 709 mmHg 64%
    06:00 +2°C° 0 mm 1 m/s 708 mmHg 63%
    07:00 +4°C° 0 mm 1 m/s 709 mmHg 60%
    08:00 +5°C° 0 mm 1 m/s 709 mmHg 56%
    09:00 +7°C° 0 mm 1 m/s 709 mmHg 53%
    10:00 +8°C° 0 mm 2 m/s 709 mmHg 51%
    11:00 +9°C° 0 mm 2 m/s 709 mmHg 50%
    12:00 +12°C° 0 mm 2 m/s 709 mmHg 48%
    13:00 +11°C° 0 mm 3 m/s 708 mmHg 53%
    14:00 +10°C° 0 mm 3 m/s 708 mmHg 58%
    15:00 +10°C° 0 mm 3 m/s 707 mmHg 63%
    16:00 +9°C° 0,2 mm 3 m/s 707 mmHg 73%
    17:00 +7°C° 0,2 mm 2 m/s 707 mmHg 82%
    18:00 +6°C° 0,2 mm 2 m/s 707 mmHg 91%
    19:00 +5°C° 0,4 mm 2 m/s 706 mmHg 93%
    20:00 +5°C° 0,4 mm 2 m/s 706 mmHg 95%
    21:00 +4°C° 0,4 mm 2 m/s 706 mmHg 97%
    22:00 +4°C° 0,2 mm 2 m/s 705 mmHg 97%
    23:00 +5°C° 0,2 mm 1 m/s 705 mmHg 97%

    21 Ianuarie, Sâmbătă

    Timp Temperatura Precipitaţii Vânt Presiune Umiditate
    00:00 +4°C° 0,2 mm 1 m/s 704 mmHg 97%
    01:00 +4°C° 0 mm 1 m/s 703 mmHg 97%
    02:00 +4°C° 0 mm 1 m/s 703 mmHg 96%
    03:00 +3°C° 0 mm 1 m/s 702 mmHg 96%
    04:00 +4°C° 0 mm 1 m/s 702 mmHg 95%
    05:00 +4°C° 0 mm 1 m/s 702 mmHg 93%
    06:00 +4°C° 0 mm 1 m/s 702 mmHg 92%
    07:00 +5°C° 0,1 mm 1 m/s 702 mmHg 88%
    08:00 +6°C° 0,1 mm 1 m/s 702 mmHg 83%
    09:00 +7°C° 0,1 mm 1 m/s 702 mmHg 79%
    10:00 +8°C° 0 mm 2 m/s 702 mmHg 72%
    11:00 +9°C° 0 mm 2 m/s 702 mmHg 66%
    12:00 +10°C° 0 mm 3 m/s 702 mmHg 59%
    13:00 +10°C° 0,1 mm 3 m/s 702 mmHg 60%
    14:00 +10°C° 0,1 mm 3 m/s 702 mmHg 61%
    15:00 +10°C° 0,1 mm 3 m/s 701 mmHg 62%
    16:00 +8°C° 0,2 mm 2 m/s 702 mmHg 69%
    17:00 +7°C° 0,2 mm 2 m/s 702 mmHg 75%
    18:00 +5°C° 0,2 mm 2 m/s 702 mmHg 82%
    19:00 +5°C° 0 mm 2 m/s 702 mmHg 83%
    20:00 +5°C° 0 mm 2 m/s 702 mmHg 84%
    21:00 +4°C° 0 mm 2 m/s 703 mmHg 85%
    22:00 +4°C° 0 mm 2 m/s 703 mmHg 86%
    23:00 +4°C° 0 mm 2 m/s 703 mmHg 86%

    22 Ianuarie, Duminică

    Timp Temperatura Precipitaţii Vânt Presiune Umiditate
    00:00 +3°C° 0 mm 2 m/s 703 mmHg 87%
    01:00 +3°C° 0 mm 2 m/s 703 mmHg 87%
    02:00 +3°C° 0 mm 2 m/s 703 mmHg 87%
    03:00 +3°C° 0 mm 2 m/s 703 mmHg 87%
    04:00 +3°C° 0 mm 2 m/s 703 mmHg 88%
    05:00 +3°C° 0 mm 2 m/s 703 mmHg 88%
    06:00 +3°C° 0 mm 2 m/s 703 mmHg 88%
    07:00 +4°C° 0 mm 2 m/s 704 mmHg 83%
    08:00 +5°C° 0 mm 2 m/s 704 mmHg 79%
    09:00 +7°C° 0 mm 3 m/s 705 mmHg 74%
    10:00 +8°C° 0 mm 3 m/s 705 mmHg 69%
    11:00 +9°C° 0 mm 3 m/s 705 mmHg 64%
    12:00 +10°C° 0 mm 3 m/s 705 mmHg 60%
    13:00 +10°C° 0,1 mm 3 m/s 705 mmHg 61%
    14:00 +10°C° 0,1 mm 3 m/s 705 mmHg 62%
    15:00 +10°C° 0,1 mm 2 m/s 705 mmHg 63%
    16:00 +9°C° 0,2 mm 2 m/s 706 mmHg 70%
    17:00 +7°C° 0,2 mm 2 m/s 706 mmHg 78%
    18:00 +6°C° 0,2 mm 2 m/s 706 mmHg 85%
    19:00 +5°C° 0,1 mm 2 m/s 707 mmHg 87%
    20:00 +5°C° 0,1 mm 2 m/s 707 mmHg 88%
    21:00 +5°C° 0,1 mm 2 m/s 707 mmHg 89%
    22:00 +4°C° 0 mm 2 m/s 708 mmHg 90%
    23:00 +4°C° 0 mm 2 m/s 708 mmHg 92%

    23 Ianuarie, Luni

    Timp Temperatura Precipitaţii Vânt Presiune Umiditate
    00:00 +3°C° 0 mm 2 m/s 708 mmHg 93%
    01:00 +3°C° 0 mm 2 m/s 708 mmHg 93%
    02:00 +2°C° 0 mm 2 m/s 708 mmHg 93%
    03:00 +2°C° 0 mm 2 m/s 708 mmHg 94%
    04:00 +2°C° 0 mm 2 m/s 708 mmHg 93%
    05:00 +2°C° 0 mm 2 m/s 708 mmHg 93%
    06:00 +1°C° 0 mm 2 m/s 709 mmHg 93%
    07:00 +3°C° 0 mm 2 m/s 709 mmHg 87%
    08:00 +5°C° 0 mm 2 m/s 710 mmHg 81%
    09:00 +6°C° 0 mm 2 m/s 711 mmHg 74%
    10:00 +9°C° 0 mm 1 m/s 711 mmHg 66%
    11:00 +11°C° 0 mm 1 m/s 711 mmHg 58%
    12:00 +12°C° 0 mm 1 m/s 711 mmHg 50%
    13:00 +12°C° 0 mm 1 m/s 711 mmHg 51%
    14:00 +12°C° 0 mm 1 m/s 710 mmHg 51%
    15:00 +12°C° 0 mm 1 m/s 710 mmHg 51%
    16:00 +10°C° 0 mm 1 m/s 710 mmHg 61%
    17:00 +8°C° 0 mm 1 m/s 710 mmHg 70%
    18:00 +6°C° 0 mm 1 m/s 710 mmHg 80%
    19:00 +5°C° 0 mm 1 m/s 710 mmHg 83%
    20:00 +4°C° 0 mm 1 m/s 711 mmHg 86%
    21:00 +4°C° 0 mm 1 m/s 711 mmHg 89%
    22:00 +3°C° 0 mm 1 m/s 711 mmHg 88%
    23:00 +3°C° 0 mm 1 m/s 711 mmHg 87%
    Arată mai mult